Wind_Speed
4 4 5 5 5 5 4 4 3 2 2 2 2 3 4 5 6 7 7 8 8 9 9 10 10 11 12 12 12 12 12 12 12 12 11 11 11 10 9 9 9 8 7
2 2 2 3 3 3 2 2 1 1 1 1 2 3 4 5 5 6 6 7 8 8 8 8 9 10 11 11 11 11 11 11 11 11 11 11 11 10 10 9 9 7 7
2 2 1 1 0 0 0 0 1 1 2 2 3 3 4 4 5 6 6 7 7 7 7 7 8 8 9 9 10 10 10 10 10 10 10 11 10 9 9 8 7 6 5
3 3 3 3 2 2 2 2 3 3 3 3 4 4 5 5 6 6 6 7 7 7 7 7 7 7 8 8 8 8 9 9 9 9 9 8 7 7 7 6 5 4 4
5 5 5 5 5 5 5 5 5 5 5 5 5 5 6 6 6 6 7 7 7 7 6 6 6 7 7 7 7 7 8 8 8 8 7 7 6 4 4 4 3 3 3
7 7 7 7 7 7 8 7 8 8 8 8 8 7 7 7 7 7 7 7 7 7 7 7 7 7 7 6 6 6 6 7 7 7 6 5 4 3 2 2 2 1 1
9 9 9 9 10 10 10 10 10 10 10 10 10 10 9 9 9 9 9 8 8 8 8 8 7 7 7 6 6 6 6 6 6 6 4 4 3 2 2 1 0 1 1
11 11 12 12 12 13 13 13 14 14 13 13 12 12 12 11 11 11 10 10 10 9 9 9 8 8 8 7 6 6 5 6 6 5 3 3 2 2 2 1 0 0 1
14 14 15 15 15 16 16 16 17 17 17 16 16 15 14 14 13 13 12 12 12 11 10 10 9 9 8 8 7 6 6 6 6 5 3 2 2 2 2 1 0 0 1
17 17 17 18 18 19 19 20 20 20 20 20 19 19 18 17 16 15 15 14 14 13 12 12 11 10 9 9 8 7 7 6 6 4 3 2 2 2 2 1 0 1 1
19 20 21 21 21 21 22 22 23 23 23 23 22 21 21 21 19 18 18 17 16 16 15 14 13 12 11 10 10 9 8 8 7 5 4 4 3 2 2 1 1 1 1
23 24 24 24 25 25 25 26 26 26 26 26 26 25 23 23 23 22 21 20 19 18 18 17 15 14 13 12 11 10 9 9 8 7 6 5 4 3 3 2 2 1 1
27 27 27 27 28 28 28 28 28 29 29 29 28 28 27 26 25 25 24 23 22 21 20 19 18 16 15 14 13 12 11 10 10 9 7 7 6 5 4 4 3 2 2
30 30 30 31 31 31 31 31 31 30 30 30 30 29 29 29 28 27 26 26 26 24 22 22 20 19 18 16 15 14 13 12 11 10 9 8 8 7 6 5 4 4 3
32 33 34 34 34 33 33 34 34 33 33 33 32 31 30 29 30 30 31 29 28 27 26 25 23 22 21 19 18 16 15 14 13 12 12 11 10 9 8 7 6 5 5
33 34 35 35 36 35 35 35 35 35 34 34 33 32 31 30 29 31 30 30 30 30 29 28 26 25 23 22 20 18 17 16 16 15 14 13 12 11 10 9 8 7 7
33 34 35 35 36 36 36 36 36 36 35 34 34 34 34 33 31 30 31 30 31 31 30 29 29 27 26 24 23 21 19 19 19 17 16 15 14 13 12 11 11 10 9
33 34 35 35 35 36 36 36 36 36 36 36 35 34 34 34 34 32 31 30 31 32 32 31 30 29 28 27 25 23 22 21 21 20 18 17 16 15 14 14 13 12 11
32 32 33 33 34 35 36 36 36 36 36 36 36 35 35 34 34 33 32 32 32 33 34 32 31 29 29 28 27 26 24 23 23 22 21 20 19 17 16 16 15 14 13
29 29 30 30 31 32 33 34 35 35 36 36 36 36 36 35 35 34 33 34 34 34 34 33 31 31 31 30 29 28 26 25 25 23 23 22 21 20 18 17 17 17 16
27 27 27 28 28 29 30 30 31 33 33 33 34 34 35 35 35 35 35 34 35 35 35 34 32 31 31 30 30 30 28 27 27 26 25 24 23 22 21 20 20 19 18
25 25 25 25 25 25 26 27 28 28 29 30 31 33 33 34 35 36 36 36 36 36 35 35 34 32 31 31 31 31 31 29 29 28 27 26 25 24 23 22 22 21 20
23 23 22 22 22 22 23 23 24 25 26 27 28 30 32 33 33 34 36 36 37 37 37 36 34 33 32 32 31 32 33 31 31 30 29 28 27 26 25 24 24 23 23
22 22 21 21 21 20 20 19 20 22 23 24 26 27 29 30 32 33 34 36 37 37 38 39 36 35 35 33 33 33 33 32 31 30 30 29 28 27 26 26 26 25 25
21 21 21 20 19 18 17 17 18 18 20 21 23 24 26 28 30 32 33 34 35 36 37 37 36 36 35 34 34 33 32 33 32 31 30 30 29 28 27 27 27 26 26
21 21 20 20 19 17 16 16 15 15 15 16 18 21 23 25 26 28 30 32 33 36 37 38 38 37 36 35 35 35 34 33 32 32 32 31 30 30 30 29 28 27 27
Wind_Direction
63 70 74 76 80 83 86 92 99 110 127 165 194 208 216 223 228 233 239 242 246 249 251 253 253 252 253 257 262 268 273 275 277 279 281 283 289 292 290 294 299 306 309
32 55 66 68 72 79 85 89 103 148 187 212 225 227 228 235 238 241 246 250 252 253 254 255 256 254 255 259 264 270 275 277 280 280 283 285 290 292 288 288 292 298 302
326 336 349 7 35 79 144 204 230 240 238 238 242 245 247 249 250 252 253 254 254 255 254 256 258 259 260 263 267 272 275 279 283 286 289 289 290 288 286 286 285 287 296
294 293 292 291 285 272 258 252 252 253 253 250 248 248 251 255 255 257 257 255 252 253 255 258 260 265 267 267 270 273 276 279 285 291 294 296 297 293 286 282 281 279 287
283 282 280 277 274 270 265 260 257 256 256 254 252 252 252 254 256 257 256 254 253 255 257 259 263 269 273 274 276 276 279 281 286 295 298 299 303 300 294 285 277 270 275
284 280 275 273 267 266 264 262 260 258 257 256 255 255 255 255 256 256 255 255 256 257 258 260 263 269 274 278 280 282 284 284 286 293 299 305 310 308 310 295 282 251 258
282 278 274 271 267 263 263 262 261 260 258 257 257 257 256 256 256 256 256 257 257 258 259 260 263 268 272 275 279 284 287 287 285 288 295 298 306 309 322 319 294 160 153
280 277 276 272 268 265 263 260 259 258 258 258 257 257 257 256 255 255 256 257 257 258 259 260 261 265 269 271 275 281 286 286 284 286 287 289 295 306 324 340 17 98 136
280 277 272 270 268 266 265 263 260 257 256 256 255 255 255 255 255 254 255 255 255 256 257 258 259 260 263 267 271 274 277 279 282 283 277 281 288 305 316 315 277 132 150
280 277 274 271 267 265 263 262 260 257 256 257 256 254 254 254 254 254 254 255 254 254 255 256 257 257 258 262 266 268 267 270 275 278 268 270 277 289 305 306 231 155 136
279 278 277 274 270 267 263 262 261 259 257 255 256 255 254 253 253 253 253 254 254 254 254 254 254 254 254 256 260 264 264 264 267 269 265 265 268 271 281 285 256 205 162
278 275 275 272 269 268 266 265 261 262 259 256 255 254 253 253 252 253 254 254 253 253 252 252 252 253 252 252 255 259 261 262 262 262 261 260 260 257 260 263 257 239 218
280 278 275 272 270 269 267 264 263 263 262 257 255 255 252 251 252 252 252 252 251 252 251 250 251 251 251 251 251 253 256 258 258 257 256 253 253 255 256 254 248 247 248
283 280 278 276 274 270 267 265 263 263 262 260 258 257 255 252 250 249 251 251 249 249 250 249 248 249 250 250 250 250 252 254 256 255 254 251 251 252 253 252 247 245 248
283 281 279 277 275 272 269 267 266 264 262 261 260 260 257 255 251 251 249 250 249 246 247 248 247 248 249 249 249 248 249 251 254 254 251 249 248 248 249 252 251 248 246
284 282 280 278 276 274 270 268 267 265 264 261 260 259 258 257 255 253 253 251 247 245 246 246 246 246 248 248 248 247 246 249 252 253 251 249 248 247 247 249 250 247 245
288 286 283 280 278 276 273 271 269 266 263 261 259 259 257 255 255 254 253 253 248 244 246 247 246 246 245 245 246 245 245 246 248 250 250 250 249 247 246 247 248 248 247
291 289 285 281 278 277 275 273 271 267 263 261 259 258 256 255 254 253 252 251 249 244 244 246 246 246 245 244 245 245 244 243 244 246 247 248 248 248 247 246 247 248 249
294 292 288 284 280 277 275 274 272 268 265 262 259 257 256 254 252 251 252 251 251 247 245 244 245 245 244 243 244 244 243 243 243 244 246 247 247 247 247 246 247 248 249
299 295 292 289 286 281 278 275 272 268 265 262 259 256 255 254 252 251 250 249 248 247 246 243 243 243 242 242 242 242 242 241 242 243 244 245 245 246 246 246 247 247 249
306 302 297 293 289 285 281 278 274 269 266 262 258 255 252 251 250 250 249 246 245 244 242 241 241 241 241 241 240 240 241 241 241 241 243 243 244 245 246 247 248 249 249
312 308 305 300 295 290 286 280 276 271 267 264 258 253 250 248 248 248 248 246 245 243 243 241 240 240 241 241 240 239 239 240 240 240 242 241 241 242 245 247 248 248 249
320 317 312 308 304 299 293 285 277 272 268 264 260 256 252 249 247 246 245 245 244 242 241 240 238 237 237 239 241 240 238 239 240 240 240 241 241 242 244 245 246 248 249
327 324 320 316 312 308 301 293 284 277 270 265 261 257 252 249 248 247 246 245 243 242 240 238 238 237 237 239 240 240 239 238 238 237 238 240 240 240 241 243 244 247 249
334 331 329 327 323 316 309 300 293 286 278 270 264 260 255 252 250 247 246 244 242 241 238 236 236 236 237 238 237 237 237 238 238 239 238 239 239 239 240 241 242 245 246
344 341 339 337 332 325 320 314 306 298 289 280 272 265 258 253 250 247 244 242 241 240 238 235 234 234 234 236 237 237 236 236 238 239 238 238 238 239 240 242 242 243 244
Height
5917 5916 5915 5915 5914 5914 5914 5914 5914 5915 5915 5915 5916 5916 5916 5916 5916 5916 5916 5916 5916 5916 5916 5915 5915 5915 5915 5915 5915 5915 5914 5914 5913 5912 5912 5911 5911 5910 5909 5909 5908 5907 5907
5918 5917 5917 5916 5915 5915 5915 5915 5915 5915 5915 5916 5916 5916 5916 5916 5916 5916 5916 5916 5916 5915 5915 5914 5914 5914 5914 5914 5914 5913 5913 5912 5912 5911 5911 5910 5910 5909 5908 5908 5907 5907 5906
5919 5918 5917 5917 5916 5916 5916 5916 5916 5916 5916 5916 5916 5916 5916 5916 5916 5915 5915 5915 5915 5915 5914 5914 5914 5913 5913 5913 5913 5912 5912 5911 5911 5910 5910 5909 5908 5908 5907 5907 5906 5906 5905
5919 5918 5918 5917 5917 5916 5916 5916 5916 5916 5915 5915 5915 5915 5915 5915 5915 5915 5914 5914 5914 5914 5914 5913 5913 5913 5912 5912 5912 5911 5911 5911 5910 5909 5909 5908 5907 5907 5906 5906 5905 5905 5905
5918 5918 5917 5917 5917 5916 5916 5916 5915 5915 5915 5915 5915 5915 5915 5914 5914 5914 5914 5914 5913 5913 5913 5913 5913 5912 5912 5911 5911 5911 5910 5910 5909 5909 5908 5907 5907 5906 5906 5905 5905 5904 5904
5917 5917 5917 5916 5916 5916 5915 5915 5915 5914 5914 5914 5914 5914 5913 5913 5913 5913 5913 5913 5913 5912 5912 5912 5912 5912 5911 5911 5910 5910 5910 5909 5908 5908 5907 5907 5906 5906 5905 5905 5904 5904 5903
5916 5915 5915 5915 5914 5914 5914 5914 5913 5913 5913 5913 5913 5912 5912 5912 5912 5912 5912 5912 5912 5911 5911 5911 5911 5911 5910 5910 5910 5909 5909 5908 5908 5907 5907 5907 5906 5906 5905 5905 5904 5904 5903
5914 5913 5913 5912 5912 5912 5912 5911 5911 5911 5911 5911 5911 5911 5911 5910 5910 5910 5910 5910 5910 5910 5910 5910 5910 5910 5909 5909 5909 5909 5908 5907 5907 5907 5906 5906 5906 5905 5905 5905 5904 5904 5903
5911 5911 5910 5910 5909 5909 5909 5908 5908 5908 5908 5908 5908 5908 5908 5908 5908 5908 5908 5908 5908 5908 5908 5908 5908 5908 5908 5908 5908 5908 5907 5907 5906 5906 5906 5906 5905 5905 5905 5905 5904 5904 5904
5909 5907 5907 5906 5905 5905 5905 5904 5904 5904 5904 5904 5904 5904 5905 5905 5905 5905 5906 5906 5906 5906 5906 5907 5907 5907 5907 5907 5907 5907 5907 5906 5905 5905 5905 5905 5905 5905 5905 5904 5904 5904 5904
5906 5904 5903 5902 5901 5900 5900 5899 5899 5899 5899 5899 5900 5900 5901 5901 5902 5902 5902 5903 5903 5903 5904 5904 5904 5905 5905 5905 5905 5906 5905 5905 5905 5905 5905 5905 5905 5905 5904 5904 5904 5904 5904
5901 5900 5898 5897 5896 5895 5895 5894 5894 5894 5894 5894 5894 5895 5896 5896 5897 5898 5898 5899 5899 5900 5901 5901 5902 5902 5903 5903 5904 5904 5904 5904 5904 5904 5904 5904 5904 5904 5904 5904 5904 5904 5904
5894 5893 5892 5891 5890 5889 5889 5888 5888 5888 5888 5888 5889 5889 5890 5891 5892 5893 5893 5894 5895 5896 5897 5898 5899 5899 5900 5901 5901 5902 5902 5902 5902 5903 5903 5903 5903 5903 5904 5904 5904 5904 5904
5887 5886 5885 5883 5883 5882 5881 5881 5881 5881 5881 5881 5882 5883 5884 5885 5886 5887 5888 5888 5889 5891 5892 5893 5895 5896 5897 5898 5899 5899 5900 5900 5900 5901 5901 5902 5902 5902 5903 5903 5903 5904 5904
5880 5878 5876 5875 5874 5874 5873 5873 5873 5874 5874 5874 5875 5876 5877 5878 5879 5880 5881 5882 5883 5885 5887 5888 5890 5891 5893 5894 5895 5896 5897 5897 5898 5899 5899 5900 5900 5900 5901 5902 5902 5903 5903
5872 5870 5868 5866 5865 5864 5864 5864 5864 5865 5865 5866 5867 5868 5870 5871 5872 5873 5874 5875 5876 5879 5880 5882 5884 5886 5888 5890 5891 5892 5893 5894 5895 5896 5896 5897 5898 5898 5899 5900 5901 5901 5902
5864 5861 5859 5857 5856 5855 5854 5854 5854 5855 5856 5857 5858 5860 5861 5863 5864 5866 5867 5869 5870 5872 5874 5876 5878 5880 5882 5884 5886 5888 5890 5890 5891 5892 5893 5894 5895 5896 5897 5898 5898 5899 5900
5855 5853 5850 5848 5846 5845 5844 5844 5844 5844 5845 5847 5849 5850 5852 5854 5856 5857 5859 5861 5863 5865 5867 5869 5871 5873 5876 5878 5880 5883 5885 5886 5887 5888 5890 5891 5892 5893 5894 5895 5896 5897 5898
5847 5844 5841 5839 5837 5836 5835 5834 5834 5834 5835 5836 5838 5840 5842 5844 5847 5849 5851 5853 5855 5857 5859 5861 5864 5866 5869 5872 5874 5877 5880 5881 5883 5884 5886 5887 5888 5889 5891 5892 5893 5894 5895
5839 5836 5833 5830 5828 5826 5825 5824 5824 5824 5824 5825 5827 5830 5832 5835 5837 5840 5842 5844 5846 5849 5851 5854 5857 5859 5862 5865 5868 5870 5873 5876 5877 5879 5881 5882 5883 5885 5886 5888 5889 5890 5892
5833 5829 5826 5823 5820 5818 5816 5815 5814 5814 5814 5815 5817 5819 5822 5824 5827 5830 5833 5835 5838 5840 5843 5846 5849 5852 5855 5858 5861 5864 5866 5869 5871 5874 5875 5877 5879 5880 5882 5883 5885 5886 5888
5827 5823 5819 5815 5813 5810 5808 5807 5806 5805 5805 5806 5807 5809 5811 5814 5817 5820 5823 5826 5829 5831 5834 5838 5841 5844 5847 5850 5853 5856 5859 5863 5865 5867 5870 5872 5873 5875 5877 5879 5880 5882 5883
5822 5817 5814 5810 5807 5804 5801 5799 5798 5797 5797 5797 5798 5800 5802 5804 5807 5810 5813 5816 5819 5822 5825 5829 5832 5835 5839 5842 5845 5849 5852 5855 5858 5861 5863 5865 5867 5869 5871 5873 5875 5877 5878
5818 5813 5809 5805 5802 5798 5795 5793 5791 5790 5789 5789 5790 5791 5793 5795 5798 5800 5803 5806 5808 5812 5816 5819 5823 5827 5830 5834 5837 5841 5844 5847 5850 5853 5856 5859 5861 5863 5865 5868 5869 5871 5873
5815 5810 5805 5801 5797 5794 5791 5788 5786 5784 5783 5782 5783 5783 5784 5786 5788 5791 5794 5796 5799 5803 5806 5810 5814 5818 5822 5825 5829 5832 5835 5839 5843 5845 5849 5852 5854 5857 5859 5861 5863 5865 5866
5812 5807 5802 5798 5794 5790 5787 5784 5782 5780 5778 5777 5776 5776 5777 5778 5780 5782 5785 5788 5791 5794 5797 5801 5805 5809 5813 5816 5820 5824 5827 5831 5834 5838 5841 5844 5847 5849 5852 5854 5856 5858 5860